Weather Roundup
Issued by NWS

Home | Current Version | Previous Version | Text Only | Print | Product List | Glossary On
Versions: 1 2 3 4 5 6 7 8 9 10 11 12 13 14 15 16 17 18 19 20 21 22 23 24 25 26 27 28 29 30 31 32 33 34 35 36 37 38 39 40 41 42 43 44 45 46 47 48 49 50
000
NZUS93 KARX 301210
HRRWXR

CURRENT HOURLY OBSERVATIONS ACROSS
MUCH OF THE UPPER MISSISSIPPI VALLEY
NATIONAL WEATHER SERVICE LA CROSSE WI
600 AM CST FRI JAN 30 2015


...SOUTHEAST MINNESOTA...


CITY           SKY/WX    TMP DP  RH WIND       PRES   REMARKS
ROCHESTER      PTCLDY     9   4  80 N3        30.49S
ROCHESTER/MAYO FAIR      12   5  74 W3        30.51S
WINONA         PTCLDY    12   7  79 CALM      30.55S
AUSTIN         CLEAR     10   7  85 CALM      30.49F
ALBERT LEA     CLEAR     12  10  92 CALM      30.49F
DODGE CENTER   PTCLDY    10   7  85 CALM      30.48F
PRESTON        PTCLDY     8   4  84 CALM      30.50S
OWATONNA       CLEAR     10   7  85 CALM      30.49F
FARIBAULT      CLEAR      9   7  92 CALM      30.50F
$$

...ELSEWHERE IN MINNESOTA...


CITY           SKY/WX    TMP DP  RH WIND       PRES   REMARKS
MINNEAPOLIS    MOCLDY    12   3  67 NE5       30.52F WCI   4
INTNL FALLS    MOCLDY   -10 -14  82 CALM      30.44F
DULUTH         MOCLDY    -1  -6  79 NW6       30.43R WCI -13
RED WING       PTCLDY     7   3  85 CALM      30.53S
REDWOOD FALLS  CLEAR     12   7  80 CALM      30.50F
MANKATO        CLEAR     10   5  79 CALM      30.50F
WORTHINGTON    CLOUDY    14  10  85 CALM      30.47F
FAIRMONT       CLEAR     12   7  79 CALM      30.48F
$$

...SOUTHWEST WISCONSIN...


CITY           SKY/WX    TMP DP  RH WIND       PRES   REMARKS
LA CROSSE      CLEAR     12   4  70 N3        30.54S
PRAIRIE DU CHI CLEAR     15   8  73 NW5       30.54R WCI   8
BOSCOBEL       CLEAR     14   6  70 NW3       30.54R
LONE ROCK      CLEAR     15   6  67 NW8       30.53R WCI   4
PLATTEVILLE    CLEAR     15   8  75 NW6       30.49R WCI   6
FORT MC COY    CLEAR      8   2  78 W3        30.52S
CAMP DOUGLAS   CLEAR      5   5  98 W3        30.49S
VIROQUA        FAIR       9   5  82 N6        30.48R WCI  -1
WIS DELLS      CLEAR     13   5  71 CALM      30.48R
$$

...ELSEWHERE IN WISCONSIN...


CITY           SKY/WX    TMP DP  RH WIND       PRES   REMARKS
MILWAUKEE      PTCLDY    19   8  62 NW10      30.47R WCI   7
MADISON        CLEAR     14   6  70 CALM      30.49R
GREEN BAY      CLOUDY    15   6  67 N5        30.48R WCI   8
EAU CLAIRE     PTCLDY     4  -2  76 CALM      30.50S
BLACK RVR FLS  FAIR       3  -1  82 CALM      30.52S
MEDFORD        CLOUDY     8   3  80 W3        30.42S
WAUSAU         CLOUDY    13   4  67 NW6       30.43S WCI   4
WIS RAPIDS     PTCLDY    11   2  67 NW8       30.48R WCI  -1
MARSHFIELD     PTCLDY     6   0  76 NW7       30.45S WCI  -6
RICE LAKE      PTCLDY     1  -2  86 CALM      30.50F
$$

...NORTHEAST IOWA...


CITY           SKY/WX    TMP DP  RH WIND       PRES   REMARKS
DECORAH        CLEAR     10   5  79 NW5       30.50S WCI   2
MASON CITY     CLEAR     10   7  87 CALM      30.52S
CHARLES CITY   CLEAR     12   7  79 NE5       30.52S WCI   4
OELWEIN        CLEAR     12   7  79 N6        30.52S WCI   3
$$

...ELSEWHERE IN IOWA...


CITY           SKY/WX    TMP DP  RH WIND       PRES   REMARKS
DES MOINES     CLEAR     19  12  74 CALM      30.55S
IOWA CITY      CLEAR     19  11  70 NW10      30.55R WCI   7
FORT DODGE     CLEAR     14   9  79 CALM      30.53R
$$

...NORTHERN ILLINOIS...


CITY           SKY/WX    TMP DP  RH WIND       PRES   REMARKS
CHICAGO-OHARE  PTCLDY    21   9  59 N13       30.46R WCI   9
CHICAGO-MIDWAY PTCLDY    24   9  52 NW13      30.46R WCI  12
MOLINE         CLEAR     20  11  68 N6        30.52R WCI  12
ROCKFORD       CLEAR     19   8  62 N9        30.51R WCI   8
PEORIA         CLEAR     24  16  71 VRB6      30.50R WCI  17
$$

NOTE: "FAIR" INDICATES FEW OR NO CLOUDS BELOW 12,000 FEET WITH NO
SIGNIFICANT WEATHER AND/OR OBSTRUCTIONS TO VISIBILITY. WIND
SPEEDS ARE IN MILES-PER-HOUR.



USA.gov is the U.S. government's official web portal to all federal, state and local government web resources and services.